Skip Page Navigation
NASA JPL Caltech
NASA Logo - Jet Propulsion Laboratory + View the NASA Portal
+ Near-Earth Object (NEO) Program
Search JPL
JPL Home Earth Solar System Stars & Galaxies Technology
JPL Solar System Dynamics
BODIES ORBITS EPHEMERIDES TOOLS PHYSICAL DATA DISCOVERY FAQ SITE MAP
JPL Small-Body Database Browser
Search: [ help ]  
7973 Koppeschaar (1344 T-2)
Classification: Main-belt Asteroid          SPK-ID: 2007973
Ephemeris | Orbit Diagram | Orbital Elements | Physical Parameters | Discovery Circumstances ]

[ show orbit diagram ]
Orbital Elements at Epoch 2456800.5 (2014-May-23.0) TDB
Reference: JPL 11 (heliocentric ecliptic J2000)
 Element Value Uncertainty (1-sigma)   Units 
e .08858827019955876 5.8646e-08  
a 2.86945222184729 2.6542e-08 AU
q 2.615252413093558 1.7082e-07 AU
i 2.326709377492076 7.5682e-06 deg
node 137.7211556051371 0.00015739 deg
peri 315.6943190491739 0.00016851 deg
M 50.36169568377323 5.5061e-05 deg
tp 2456552.132499147502
(2013-Sep-16.63249915)
0.00027274 JED
period 1775.402894857418
4.86
2.4633e-05
6.744e-08
d
yr
n .2027708758630314 2.8134e-09 deg/d
Q 3.123652030601022 2.8894e-08 AU
  Orbit Determination Parameters
   # obs. used (total)      765  
   data-arc span      23127 days (63.32 yr)  
   first obs. used      1951-02-04  
   last obs. used      2014-05-31  
   planetary ephem.      DE431  
   SB-pert. ephem.      SB431-BIG16  
   condition code      0  
   fit RMS      .53779  
   data source      ORB  
   producer      Otto Matic  
   solution date      2014-Jun-16 13:38:43  

Additional Information
 Earth MOID = 1.63202 AU 
 T_jup = 3.292 
[ show covariance matrix ]

Ephemeris | Orbit Diagram | Orbital Elements | Physical Parameters | Discovery Circumstances ]

Physical Parameter Table
Parameter Symbol Value Units Sigma Reference Notes
absolute magnitude H 14.0 mag n/a MPO279599  

7973 Koppeschaar           Discovered 1973 Sept. 29 by C. J. van Houten and I. van Houten-Groeneveld on Palomar Schmidt plates taken by T. Gehrels.
Carl Egon Koppeschaar is a science writer and reporter in the Netherlands. He is internationally known for popularizing astrophysics and space science, for debunking pseudoscience, and for taking action against light pollution. His Moon Handbook: a 21st-Century Travel Guide is a delight.
NOTE: some special characters may not display properly (any characters within {} are an attempt to place the proper accent above a character)
Reference: 20000124/MPCPages.arcLast Updated: 2013-03-29

Alternate Designations
 1344 T-2 = 1990 EO5 
Ephemeris | Orbit Diagram | Orbital Elements | Physical Parameters | Discovery Circumstances ]
ABOUT SSD CREDITS/AWARDS PRIVACY/COPYRIGHT GLOSSARY LINKS
FirstGov 2014-Jul-30 21:16 UT
(server date/time)  
NASA Home Page
Site Manager:   Donald K. Yeomans
Webmaster  Alan B. Chamberlin